Thunderstorms From: 22-05-2018 15:00 Until: 23-05-2018 15:00 warning for: Thunderstorms Level: Yellow info button

Although rather usual in this region, locally or potentially dangerous phenomena are expected. (such as local winds, summer thunderstorms, rising streams or high waves) Be aware and pay attention to the latest weather updates, especially if you carry out activities exposed to weather or close to a stream or shoreline. 


Meteo18 Weather Cam more information Meteo18 Weather Cam


warning for Thunderstorms more information blitzortung!


Rain radar more information rain snow radar


Visit our other weather sites:

Template documentation
and downloads

And another site



Weather Underground History page Text

Daily Summary for March 1, 2017 Units:  Metric    English   Both
« Previous Day
Next Day »
Daily Weekly Monthly Yearly Custom
  High: Low: Average:
Temperature: -17.8 °C -14.6 °C -13.4 °C
Dew Point: -17.8 °C -15.8 °C -14.1 °C
Humidity: Humidity % 84 % 91 %
Wind Speed: 0 km/h 10.3 km/h 29.3 km/h
Wind Gust: 0 km/h - -
Wind:- - SW
Pressure: 0 hPa 34097 hPa -
Precipitation: 347.98 mm    
Historical Graphs
 
 
Tabular Data for March 1, 2017
Time Temperature Dew Point Pressure Wind Wind Speed Wind Gust Humidity Rainfall Rate (Hourly)
-17.8 °C -17.8 °C 0 hPa Calm     Humidity % 0 mm
00:02 -14.6 °C -15.8 °C 34107.2 hPa SW 33.6 km/h 59.5 km/h 86 % 7.62 mm
00:12 -14.4 °C -15.7 °C 34097 hPa SSW 33.6 km/h 59.5 km/h 85 % 7.62 mm
00:17 -14.4 °C -15.8 °C 34107.2 hPa West 59.5 km/h 59.5 km/h 84 % 7.62 mm
00:22 -14.3 °C -15.7 °C 34097 hPa WSW 33.6 km/h 57 km/h 84 % 7.62 mm
00:32 -14.3 °C -15.7 °C 34107.2 hPa West 41.4 km/h 59.5 km/h 84 % 7.62 mm
00:37 -14.3 °C -15.7 °C 34107.2 hPa West 62.1 km/h 72.6 km/h 84 % 7.62 mm
00:42 -14.3 °C -15.7 °C 34107.2 hPa WSW 31.1 km/h 72.6 km/h 84 % 7.62 mm
00:52 -14.3 °C -15.6 °C 34107.2 hPa WSW 36.2 km/h 72.6 km/h 85 % 0 mm
00:57 -14.3 °C -15.6 °C 34107.2 hPa SW 28.5 km/h 72.6 km/h 85 % 0 mm
01:02 -14.3 °C -15.6 °C 34107.2 hPa WSW 33.6 km/h 72.6 km/h 86 % 0 mm
01:12 -14.3 °C -15.6 °C 34130.9 hPa West 28.5 km/h 67.3 km/h 86 % 0 mm
01:17 -14.3 °C -15.6 °C 34130.9 hPa WNW 28.5 km/h 57 km/h 86 % 0 mm
01:22 -14.3 °C -15.6 °C 34144.4 hPa West 38.8 km/h 57 km/h 86 % 0 mm
01:27 -14.3 °C -15.6 °C 34144.4 hPa SSW 10.3 km/h 51.8 km/h 86 % 0 mm
01:32 -14.3 °C -15.4 °C 34144.4 hPa WSW 38.8 km/h 51.8 km/h 87 % 0 mm
01:37 -14.4 °C -15.5 °C 34144.4 hPa SW 54.4 km/h 54.4 km/h 87 % 0 mm
01:42 -14.3 °C -15.6 °C 34144.4 hPa SW 15.6 km/h 49.2 km/h 86 % 0 mm
01:47 -14.3 °C -15.4 °C 34144.4 hPa WSW 31.1 km/h 67.3 km/h 87 % 0 mm
01:52 -14.3 °C -15.4 °C 34144.4 hPa SW 28.5 km/h 67.3 km/h 87 % 0 mm
01:57 -14.3 °C -15.4 °C 34144.4 hPa WSW 31.1 km/h 67.3 km/h 87 % 0 mm
02:02 -14.3 °C -15.4 °C 34144.4 hPa West 12.9 km/h 67.3 km/h 87 % 0 mm
02:07 -14.3 °C -15.4 °C 34144.4 hPa West 20.8 km/h 44.1 km/h 87 % 0 mm
02:12 -14.3 °C -15.4 °C 34154.6 hPa West 18.2 km/h 44.1 km/h 87 % 0 mm
02:17 -14.3 °C -15.3 °C 34144.4 hPa West 23.3 km/h 44.1 km/h 88 % 0 mm
02:22 -14.3 °C -15.3 °C 34144.4 hPa West 20.8 km/h 44.1 km/h 88 % 0 mm
02:27 -14.3 °C -15.3 °C 34144.4 hPa WSW 20.8 km/h 54.4 km/h 88 % 0 mm
02:32 -14.3 °C -15.3 °C 34154.6 hPa WSW 28.5 km/h 51.8 km/h 88 % 0 mm
02:37 -14.3 °C -15.3 °C 34154.6 hPa SW 31.1 km/h 51.8 km/h 88 % 0 mm
02:42 -14.3 °C -15.3 °C 34154.6 hPa SW 33.6 km/h 49.2 km/h 88 % 0 mm
02:47 -14.3 °C -15.3 °C 34154.6 hPa West 38.8 km/h 51.8 km/h 89 % 0 mm
02:52 -14.3 °C -15.3 °C 34154.6 hPa SW 15.6 km/h 57 km/h 89 % 0 mm
02:57 -14.4 °C -15.2 °C 34154.6 hPa West 36.2 km/h 57 km/h 90 % 0 mm
03:02 -14.4 °C -15.2 °C 34154.6 hPa West 12.9 km/h 57 km/h 90 % 0 mm
03:12 -14.4 °C -15.2 °C 34154.6 hPa WSW 18.2 km/h 57 km/h 90 % 0 mm
03:17 -14.4 °C -15.2 °C 34154.6 hPa WSW 31.1 km/h 57 km/h 90 % 0 mm
03:22 -14.3 °C -15.3 °C 34154.6 hPa West 23.3 km/h 51.8 km/h 89 % 0 mm
03:32 -14.3 °C -15.3 °C 34164.7 hPa West 25.9 km/h 54.4 km/h 89 % 0 mm
03:42 -14.3 °C -15.2 °C 34164.7 hPa West 20.8 km/h 46.7 km/h 89 % 0 mm
03:52 -14.3 °C -15.2 °C 34164.7 hPa WSW 23.3 km/h 41.4 km/h 89 % 0 mm
03:57 -14.3 °C -15.2 °C 34164.7 hPa SSW 15.6 km/h 49.2 km/h 89 % 0 mm
04:02 -14.3 °C -15.2 °C 34164.7 hPa West 36.2 km/h 49.2 km/h 89 % 0 mm
04:12 -14.2 °C -15.2 °C 34164.7 hPa SW 31.1 km/h 57 km/h 89 % 0 mm
04:17 -14.2 °C -15.2 °C 34164.7 hPa WSW 25.9 km/h 57 km/h 89 % 0 mm
04:22 -14.2 °C -15.1 °C 34164.7 hPa West 20.8 km/h 54.4 km/h 89 % 0 mm
04:32 -14.2 °C -15.2 °C 34164.7 hPa WSW 31.1 km/h 54.4 km/h 88 % 0 mm
04:37 -14.2 °C -15.2 °C 34178.3 hPa WNW 20.8 km/h 54.4 km/h 89 % 0 mm
04:42 -14.2 °C -15.2 °C 34178.3 hPa SW 25.9 km/h 51.8 km/h 89 % 0 mm
04:47 -14.2 °C -15.2 °C 34178.3 hPa SW 38.8 km/h 57 km/h 89 % 0 mm
04:52 -14.3 °C -15.1 °C 34178.3 hPa WSW 46.7 km/h 57 km/h 90 % 0 mm
04:57 -14.3 °C -15.1 °C 34178.3 hPa SW 28.5 km/h 54.4 km/h 90 % 0 mm
05:02 -14.3 °C -15.1 °C 34178.3 hPa West 12.9 km/h 54.4 km/h 91 % 0 mm
05:12 -14.3 °C -15.1 °C 34188.4 hPa WSW 33.6 km/h 54.4 km/h 91 % 0 mm
05:17 -14.3 °C -15.1 °C 34188.4 hPa SW 33.6 km/h 44.1 km/h 91 % 0 mm
05:22 -14.3 °C -15.1 °C 34198.6 hPa WSW 31.1 km/h 49.2 km/h 91 % 0 mm
05:32 -14.3 °C -15 °C 34198.6 hPa WSW 33.6 km/h 62.1 km/h 92 % 0 mm
05:37 -14.3 °C -15 °C 34198.6 hPa WSW 46.7 km/h 46.7 km/h 92 % 0 mm
05:42 -14.3 °C -15 °C 34198.6 hPa SW 10.3 km/h 44.1 km/h 92 % 0 mm
05:47 -14.3 °C -15 °C 34198.6 hPa WSW 38.8 km/h 46.7 km/h 92 % 0 mm
05:52 -14.3 °C -15 °C 34198.6 hPa WSW 20.8 km/h 46.7 km/h 92 % 0 mm
05:57 -14.3 °C -14.9 °C 34198.6 hPa SW 15.6 km/h 46.7 km/h 92 % 0 mm
06:02 -14.3 °C -15.1 °C 34198.6 hPa WSW 25.9 km/h 46.7 km/h 91 % 0 mm
06:12 -14.3 °C -14.9 °C 34198.6 hPa West 25.9 km/h 46.7 km/h 92 % 0 mm
06:17 -14.3 °C -14.9 °C 34198.6 hPa WSW 20.8 km/h 49.2 km/h 92 % 0 mm
06:22 -14.3 °C -14.9 °C 34198.6 hPa SW 23.3 km/h 49.2 km/h 92 % 0 mm
06:27 -14.3 °C -14.9 °C 34198.6 hPa SW 10.3 km/h 49.2 km/h 92 % 0 mm
06:32 -14.3 °C -14.9 °C 34212.1 hPa West 15.6 km/h 49.2 km/h 92 % 0 mm
06:37 -14.3 °C -14.9 °C 34212.1 hPa SW 18.2 km/h 49.2 km/h 92 % 0 mm
06:42 -14.3 °C -14.9 °C 34212.1 hPa WSW 25.9 km/h 41.4 km/h 92 % 0 mm
06:47 -14.3 °C -14.9 °C 34212.1 hPa SSW 28.5 km/h 41.4 km/h 92 % 0 mm
06:52 -14.3 °C -14.9 °C 34212.1 hPa SW 25.9 km/h 41.4 km/h 92 % 0 mm
06:57 -14.3 °C -14.8 °C 34212.1 hPa WSW 31.1 km/h 44.1 km/h 93 % 0 mm
07:02 -14.3 °C -14.9 °C 34212.1 hPa SSW 10.3 km/h 44.1 km/h 93 % 0 mm
07:07 -14.3 °C -14.9 °C 34212.1 hPa WSW 18.2 km/h 44.1 km/h 93 % 7.62 mm
07:12 -14.3 °C -14.9 °C 34212.1 hPa WSW 20.8 km/h 44.1 km/h 93 % 7.62 mm
07:17 -14.3 °C -14.8 °C 34212.1 hPa WSW 15.6 km/h 36.2 km/h 94 % 7.62 mm
07:27 -14.3 °C -14.8 °C 34212.1 hPa WSW 18.2 km/h 36.2 km/h 94 % 12.7 mm
07:32 -14.3 °C -14.8 °C 34212.1 hPa SW 10.3 km/h 36.2 km/h 94 % 12.7 mm
07:37 -14.3 °C -14.8 °C 34212.1 hPa WSW 20.8 km/h 36.2 km/h 94 % 20.32 mm
07:42 -14.3 °C -14.7 °C 34212.1 hPa SW 20.8 km/h 36.2 km/h 95 % 20.32 mm
07:47 -14.3 °C -14.8 °C 34222.3 hPa SW 25.9 km/h 38.8 km/h 94 % 20.32 mm
07:57 -14.3 °C -14.8 °C 34222.3 hPa SSW 15.6 km/h 33.6 km/h 94 % 20.32 mm
08:02 -14.3 °C -14.8 °C 34222.3 hPa SW 10.3 km/h 33.6 km/h 94 % 20.32 mm
08:07 -14.3 °C -14.8 °C 34222.3 hPa SW 12.9 km/h 33.6 km/h 94 % 12.7 mm
08:12 -14.3 °C -14.8 °C 34222.3 hPa SW 18.2 km/h 33.6 km/h 94 % 12.7 mm
08:17 -14.2 °C -14.8 °C 34235.8 hPa West 12.9 km/h 38.8 km/h 93 % 12.7 mm
08:22 -14.2 °C -14.8 °C 34235.8 hPa WSW 25.9 km/h 38.8 km/h 93 % 12.7 mm
08:32 -14.2 °C -14.8 °C 34235.8 hPa SW 10.3 km/h 38.8 km/h 93 % 12.7 mm
08:37 -14.1 °C -14.7 °C 34235.8 hPa SW 23.3 km/h 41.4 km/h 93 % 7.62 mm
08:42 -14.1 °C -14.8 °C 34235.8 hPa WSW 23.3 km/h 41.4 km/h 92 % 7.62 mm
08:47 -14.1 °C -14.7 °C 34235.8 hPa WSW 23.3 km/h 38.8 km/h 92 % 7.62 mm
08:57 -14 °C -14.7 °C 34235.8 hPa WSW 31.1 km/h 41.4 km/h 92 % 7.62 mm
09:02 -14 °C -14.8 °C 34235.8 hPa SW 20.8 km/h 41.4 km/h 91 % 7.62 mm
09:07 -13.9 °C -14.7 °C 34235.8 hPa SSW 18.2 km/h 49.2 km/h 91 % 7.62 mm
09:12 -13.9 °C -14.7 °C 34235.8 hPa SW 18.2 km/h 49.2 km/h 91 % 7.62 mm
09:17 -13.9 °C -14.7 °C 34235.8 hPa WSW 25.9 km/h 49.2 km/h 91 % 7.62 mm
09:27 -13.8 °C -14.6 °C 34235.8 hPa SW 36.2 km/h 38.8 km/h 91 % 0 mm
09:32 -13.8 °C -14.6 °C 34235.8 hPa SW 28.5 km/h 38.8 km/h 91 % 0 mm
09:37 -13.8 °C -14.6 °C 34246 hPa SSW 23.3 km/h 44.1 km/h 91 % 0 mm
09:42 -13.8 °C -14.6 °C 34246 hPa WSW 10.3 km/h 44.1 km/h 91 % 0 mm
09:47 -13.9 °C -14.7 °C 34246 hPa SW 12.9 km/h 36.2 km/h 91 % 7.62 mm
09:52 -13.9 °C -14.6 °C 34246 hPa West 10.3 km/h 36.2 km/h 92 % 7.62 mm
09:57 -13.9 °C -14.6 °C 34235.8 hPa SW 18.2 km/h 36.2 km/h 92 % 12.7 mm
10:02 -13.8 °C -14.5 °C 34235.8 hPa SW 28.5 km/h 36.2 km/h 92 % 12.7 mm
10:07 -13.8 °C -14.5 °C 34235.8 hPa SW 18.2 km/h 41.4 km/h 92 % 12.7 mm
10:12 -13.8 °C -14.5 °C 34235.8 hPa SW 15.6 km/h 41.4 km/h 92 % 20.32 mm
10:17 -13.8 °C -14.4 °C 34235.8 hPa WSW 23.3 km/h 41.4 km/h 92 % 20.32 mm
10:22 -13.8 °C -14.4 °C 34246 hPa WSW 23.3 km/h 41.4 km/h 92 % 20.32 mm
10:32 -13.8 °C -14.4 °C 34235.8 hPa WSW 28.5 km/h 51.8 km/h 92 % 25.4 mm
10:37 -13.7 °C -14.4 °C 34246 hPa West 28.5 km/h 51.8 km/h 92 % 25.4 mm
10:42 -13.7 °C -14.4 °C 34246 hPa WSW 33.6 km/h 51.8 km/h 92 % 20.32 mm
10:47 -13.7 °C -14.8 °C 34246 hPa SW 46.7 km/h 57 km/h 88 % 20.32 mm
10:52 -13.7 °C -14.8 °C 34246 hPa SSW 25.9 km/h 59.5 km/h 87 % 12.7 mm
10:57 -13.7 °C -14.8 °C 34246 hPa WSW 28.5 km/h 59.5 km/h 88 % 20.32 mm
11:02 -13.7 °C -14.8 °C 34246 hPa WSW 44.1 km/h 59.5 km/h 88 % 12.7 mm
11:07 -13.7 °C -14.8 °C 34246 hPa WSW 33.6 km/h 54.4 km/h 87 % 12.7 mm
11:12 -13.7 °C -14.8 °C 34246 hPa SW 20.8 km/h 51.8 km/h 87 % 12.7 mm
11:17 -13.7 °C -14.8 °C 34235.8 hPa SW 20.8 km/h 51.8 km/h 87 % 12.7 mm
11:22 -13.7 °C -14.7 °C 34235.8 hPa SW 38.8 km/h 44.1 km/h 88 % 12.7 mm
11:27 -13.6 °C -14.7 °C 34235.8 hPa WSW 28.5 km/h 44.1 km/h 88 % 12.7 mm
11:32 -13.6 °C -14.6 °C 34235.8 hPa South 33.6 km/h 54.4 km/h 88 % 12.7 mm
11:37 -13.5 °C -14.4 °C 34235.8 hPa SW 25.9 km/h 57 km/h 89 % 12.7 mm
11:42 -13.4 °C -14.4 °C 34235.8 hPa SW 31.1 km/h 57 km/h 89 % 12.7 mm
11:47 -13.4 °C -14.6 °C 34222.3 hPa SW 28.5 km/h 62.1 km/h 87 % 12.7 mm
11:52 -13.4 °C -14.6 °C 34222.3 hPa SW 31.1 km/h 62.1 km/h 87 % 7.62 mm
11:57 -13.4 °C -14.5 °C 34222.3 hPa SW 36.2 km/h 62.1 km/h 88 % 7.62 mm
12:02 -13.5 °C -14.4 °C 34235.8 hPa SW 28.5 km/h 62.1 km/h 89 % 7.62 mm
12:07 -13.5 °C -14.6 °C 34222.3 hPa SW 46.7 km/h 62.1 km/h 88 % 7.62 mm
12:12 -13.6 °C -14.5 °C 34212.1 hPa SSW 46.7 km/h 62.1 km/h 89 % 7.62 mm
12:17 -13.6 °C -14.4 °C 34222.3 hPa SW 33.6 km/h 62.1 km/h 90 % 7.62 mm
12:22 -13.7 °C -14.5 °C 34212.1 hPa SW 41.4 km/h 59.5 km/h 90 % 7.62 mm
12:27 -13.7 °C -14.5 °C 34212.1 hPa SSW 44.1 km/h 54.4 km/h 90 % 0 mm
12:32 -13.7 °C -14.5 °C 34212.1 hPa SW 51.8 km/h 54.4 km/h 91 % 0 mm
12:37 -13.8 °C -14.5 °C 34212.1 hPa SSW 41.4 km/h 62.1 km/h 92 % 0 mm
12:42 -13.9 °C -14.5 °C 34212.1 hPa SSW 36.2 km/h 64.7 km/h 93 % 0 mm
12:47 -13.9 °C -14.4 °C 34212.1 hPa SW 18.2 km/h 64.7 km/h 94 % 0 mm
12:52 -13.9 °C -14.4 °C 34212.1 hPa SSW 31.1 km/h 64.7 km/h 94 % 0 mm
12:57 -13.9 °C -14.4 °C 34212.1 hPa SW 33.6 km/h 51.8 km/h 94 % 7.62 mm
13:02 -14 °C -14.5 °C 34212.1 hPa South 20.8 km/h 51.8 km/h 94 % 12.7 mm
13:12 -13.9 °C -14.3 °C 34198.6 hPa SSW 31.1 km/h 38.8 km/h 95 % 12.7 mm
13:17 -13.9 °C -14.3 °C 34198.6 hPa South 18.2 km/h 38.8 km/h 95 % 12.7 mm
13:22 -13.9 °C -14.4 °C 34198.6 hPa SSW 15.6 km/h 38.8 km/h 94 % 20.32 mm
13:32 -13.9 °C -14.4 °C 34188.4 hPa SW 33.6 km/h 38.8 km/h 94 % 33.02 mm
13:37 -13.9 °C -14.4 °C 34188.4 hPa SSW 25.9 km/h 38.8 km/h 94 % 33.02 mm
13:42 -13.8 °C -14.3 °C 34188.4 hPa SW 20.8 km/h 33.6 km/h 94 % 38.1 mm
13:47 -13.8 °C -14.3 °C 34188.4 hPa SSW 18.2 km/h 41.4 km/h 94 % 38.1 mm
13:52 -13.8 °C -14.2 °C 34188.4 hPa SSW 15.6 km/h 41.4 km/h 95 % 38.1 mm
13:57 -13.8 °C -14.2 °C 34188.4 hPa South 20.8 km/h 41.4 km/h 95 % 45.72 mm
14:02 -13.8 °C -14.2 °C 34178.3 hPa SSW 15.6 km/h 33.6 km/h 95 % 50.8 mm
14:07 -13.8 °C -14.2 °C 34178.3 hPa SSW 15.6 km/h 33.6 km/h 95 % 58.42 mm
14:12 -13.7 °C -14.1 °C 34178.3 hPa SSW 15.6 km/h 33.6 km/h 96 % 58.42 mm
14:17 -13.7 °C -14.1 °C 34164.7 hPa SSW 25.9 km/h 33.6 km/h 96 % 58.42 mm
14:22 -13.6 °C -13.9 °C 34164.7 hPa South 31.1 km/h 38.8 km/h 96 % 58.42 mm
14:27 -13.5 °C -13.8 °C 34164.7 hPa SSW 18.2 km/h 38.8 km/h 96 % 58.42 mm
14:32 -13.4 °C -13.8 °C 34154.6 hPa SSW 33.6 km/h 44.1 km/h 96 % 58.42 mm
14:37 -13.4 °C -13.7 °C 34154.6 hPa SSW 33.6 km/h 44.1 km/h 96 % 58.42 mm
14:42 -13.3 °C -13.6 °C 34154.6 hPa SW 31.1 km/h 44.1 km/h 96 % 63.5 mm
14:47 -13.3 °C -13.6 °C 34154.6 hPa SSW 31.1 km/h 46.7 km/h 96 % 58.42 mm
14:52 -13.2 °C -13.6 °C 34154.6 hPa SW 28.5 km/h 46.7 km/h 96 % 58.42 mm
14:57 -13.2 °C -13.6 °C 34154.6 hPa SW 31.1 km/h 46.7 km/h 96 % 58.42 mm
15:02 -13.2 °C -13.6 °C 34154.6 hPa SSW 31.1 km/h 46.7 km/h 96 % 58.42 mm
15:07 -13.2 °C -13.5 °C 34144.4 hPa WSW 20.8 km/h 44.1 km/h 96 % 58.42 mm
15:12 -13.1 °C -13.4 °C 34154.6 hPa SW 23.3 km/h 46.7 km/h 96 % 50.8 mm
15:17 -13.1 °C -13.4 °C 34144.4 hPa SW 41.4 km/h 46.7 km/h 96 % 45.72 mm
15:22 -12.9 °C -13.3 °C 34144.4 hPa SW 20.8 km/h 46.7 km/h 96 % 45.72 mm
15:32 -12.9 °C -13.3 °C 34144.4 hPa SW 28.5 km/h 54.4 km/h 95 % 45.72 mm
15:37 -12.8 °C -13.3 °C 34144.4 hPa SSW 28.5 km/h 54.4 km/h 95 % 45.72 mm
15:42 -12.8 °C -13.3 °C 34144.4 hPa SSW 38.8 km/h 49.2 km/h 95 % 45.72 mm
15:52 -12.7 °C -13.2 °C 34144.4 hPa SW 33.6 km/h 49.2 km/h 95 % 38.1 mm
15:57 -12.7 °C -13.1 °C 34144.4 hPa SW 31.1 km/h 59.5 km/h 95 % 45.72 mm
16:02 -12.6 °C -13.1 °C 34144.4 hPa WSW 23.3 km/h 59.5 km/h 95 % 38.1 mm
16:12 -12.4 °C -12.9 °C 34144.4 hPa SW 33.6 km/h 49.2 km/h 95 % 38.1 mm
16:17 -12.4 °C -12.9 °C 34144.4 hPa SW 12.9 km/h 49.2 km/h 95 % 33.02 mm
16:22 -12.4 °C -12.8 °C 34144.4 hPa SW 38.8 km/h 49.2 km/h 95 % 38.1 mm
16:32 -12.3 °C -12.7 °C 34144.4 hPa SW 20.8 km/h 51.8 km/h 95 % 33.02 mm
16:37 -12.2 °C -12.7 °C 34144.4 hPa SSW 20.8 km/h 64.7 km/h 94 % 38.1 mm
16:42 -12.2 °C -12.7 °C 34144.4 hPa SW 36.2 km/h 64.7 km/h 94 % 38.1 mm
16:52 -12.1 °C -12.6 °C 34144.4 hPa WSW 28.5 km/h 57 km/h 94 % 33.02 mm
16:57 -12.1 °C -12.6 °C 34144.4 hPa SW 18.2 km/h 57 km/h 94 % 33.02 mm
17:02 -12.1 °C -12.6 °C 34144.4 hPa West 31.1 km/h 51.8 km/h 94 % 33.02 mm
17:12 -12.1 °C -12.6 °C 34144.4 hPa SW 36.2 km/h 51.8 km/h 94 % 33.02 mm
17:17 -12 °C -12.5 °C 34144.4 hPa SW 41.4 km/h 46.7 km/h 94 % 25.4 mm
17:22 -12 °C -12.5 °C 34144.4 hPa WSW 20.8 km/h 59.5 km/h 94 % 20.32 mm
17:27 -12 °C -12.5 °C 34144.4 hPa SW 33.6 km/h 59.5 km/h 94 % 20.32 mm
17:32 -11.9 °C -12.4 °C 34144.4 hPa WSW 20.8 km/h 59.5 km/h 94 % 20.32 mm
17:37 -11.9 °C -12.4 °C 34144.4 hPa SSW 33.6 km/h 57 km/h 94 % 20.32 mm
17:42 -11.8 °C -12.4 °C 34144.4 hPa SW 28.5 km/h 54.4 km/h 93 % 12.7 mm
17:52 -11.8 °C -12.4 °C 34144.4 hPa SW 31.1 km/h 62.1 km/h 93 % 12.7 mm
17:57 -11.8 °C -12.4 °C 34144.4 hPa WSW 20.8 km/h 62.1 km/h 92 % 12.7 mm
18:02 -11.8 °C -12.4 °C 34144.4 hPa WSW 18.2 km/h 51.8 km/h 92 % 12.7 mm
18:12 -11.8 °C -12.5 °C 34144.4 hPa WSW 54.4 km/h 62.1 km/h 92 % 7.62 mm
18:17 -11.8 °C -12.5 °C 34144.4 hPa SW 23.3 km/h 62.1 km/h 92 % 7.62 mm
18:22 -11.8 °C -12.5 °C 34154.6 hPa WSW 33.6 km/h 62.1 km/h 92 % 7.62 mm
18:32 -11.8 °C -12.5 °C 34154.6 hPa SW 36.2 km/h 59.5 km/h 92 % 0 mm
18:37 -11.9 °C -12.6 °C 34154.6 hPa WSW 28.5 km/h 59.5 km/h 92 % 0 mm
18:42 -11.9 °C -12.6 °C 34154.6 hPa SW 18.2 km/h 67.3 km/h 92 % 7.62 mm
18:47 -11.9 °C -12.6 °C 34154.6 hPa SW 38.8 km/h 67.3 km/h 92 % 7.62 mm
18:52 -11.9 °C -12.6 °C 34154.6 hPa SW 28.5 km/h 77.7 km/h 92 % 7.62 mm
18:57 -11.9 °C -12.6 °C 34154.6 hPa SW 31.1 km/h 77.7 km/h 92 % 7.62 mm
19:02 -11.9 °C -12.6 °C 34154.6 hPa WSW 49.2 km/h 77.7 km/h 92 % 7.62 mm
19:12 -11.9 °C -12.6 °C 34154.6 hPa WSW 20.8 km/h 67.3 km/h 92 % 7.62 mm
19:17 -11.9 °C -12.6 °C 34154.6 hPa SW 31.1 km/h 67.3 km/h 92 % 7.62 mm
19:22 -11.9 °C -12.6 °C 34164.7 hPa SSW 18.2 km/h 67.3 km/h 92 % 7.62 mm
19:27 -12 °C -12.7 °C 34164.7 hPa SW 59.5 km/h 64.7 km/h 92 % 7.62 mm
19:37 -12.1 °C -12.7 °C 34164.7 hPa WSW 44.1 km/h 69.8 km/h 93 % 7.62 mm
19:42 -12.1 °C -12.7 °C 34178.3 hPa SW 44.1 km/h 69.8 km/h 93 % 7.62 mm
19:47 -12.1 °C -12.7 °C 34178.3 hPa WSW 36.2 km/h 69.8 km/h 93 % 7.62 mm
19:52 -12.1 °C -12.6 °C 34178.3 hPa SW 36.2 km/h 69.8 km/h 94 % 7.62 mm
19:57 -12.1 °C -12.6 °C 34178.3 hPa WSW 36.2 km/h 69.8 km/h 94 % 7.62 mm
20:02 -12.1 °C -12.7 °C 34178.3 hPa WSW 77.7 km/h 77.7 km/h 93 % 7.62 mm
20:07 -12.1 °C -12.7 °C 34178.3 hPa SW 36.2 km/h 77.7 km/h 93 % 12.7 mm
20:12 -12.1 °C -12.7 °C 34178.3 hPa SW 31.1 km/h 77.7 km/h 93 % 12.7 mm
20:17 -12.1 °C -12.7 °C 34178.3 hPa WSW 44.1 km/h 77.7 km/h 93 % 12.7 mm
20:22 -12.1 °C -12.7 °C 34178.3 hPa WSW 57 km/h 64.7 km/h 92 % 12.7 mm
20:32 -12.1 °C -12.7 °C 34178.3 hPa WSW 59.5 km/h 67.3 km/h 92 % 12.7 mm
20:37 -12.1 °C -12.7 °C 34178.3 hPa WSW 38.8 km/h 72.6 km/h 92 % 20.32 mm
20:42 -12.1 °C -12.7 °C 34178.3 hPa WSW 57 km/h 72.6 km/h 92 % 12.7 mm
20:52 -12.1 °C -12.8 °C 34188.4 hPa SW 36.2 km/h 67.3 km/h 92 % 20.32 mm
20:57 -12.1 °C -12.8 °C 34188.4 hPa WSW 23.3 km/h 67.3 km/h 92 % 20.32 mm
21:02 -12.2 °C -12.8 °C 34188.4 hPa WSW 51.8 km/h 62.1 km/h 92 % 12.7 mm
21:07 -12.2 °C -12.8 °C 34188.4 hPa WSW 41.4 km/h 80.3 km/h 92 % 25.4 mm
21:12 -12.2 °C -12.8 °C 34188.4 hPa SW 49.2 km/h 80.3 km/h 92 % 25.4 mm
21:17 -12.2 °C -12.8 °C 34188.4 hPa WSW 44.1 km/h 80.3 km/h 92 % 33.02 mm
21:22 -12.2 °C -12.8 °C 34198.6 hPa SW 51.8 km/h 67.3 km/h 92 % 33.02 mm
21:32 -12.3 °C -12.9 °C 34198.6 hPa SSW 12.9 km/h 75.2 km/h 93 % 25.4 mm
21:37 -12.3 °C -12.9 °C 34198.6 hPa SW 25.9 km/h 64.7 km/h 93 % 33.02 mm
21:42 -12.3 °C -12.9 °C 34198.6 hPa SW 38.8 km/h 67.3 km/h 93 % 33.02 mm
21:47 -12.3 °C -12.9 °C 34198.6 hPa SSW 28.5 km/h 67.3 km/h 93 % 25.4 mm
21:52 -12.3 °C -12.8 °C 34198.6 hPa WSW 23.3 km/h 67.3 km/h 94 % 25.4 mm
21:57 -12.3 °C -12.8 °C 34198.6 hPa WSW 33.6 km/h 54.4 km/h 94 % 25.4 mm
22:02 -12.3 °C -12.8 °C 34212.1 hPa WSW 33.6 km/h 54.4 km/h 94 % 20.32 mm
22:07 -12.3 °C -12.8 °C 34212.1 hPa WSW 49.2 km/h 54.4 km/h 94 % 12.7 mm
22:12 -12.3 °C -12.8 °C 34212.1 hPa WNW 33.6 km/h 62.1 km/h 95 % 12.7 mm
22:17 -12.3 °C -12.8 °C 34212.1 hPa WSW 23.3 km/h 64.7 km/h 94 % 12.7 mm
22:22 -12.3 °C -12.8 °C 34222.3 hPa WSW 31.1 km/h 67.3 km/h 94 % 12.7 mm
22:32 -12.3 °C -12.8 °C 34222.3 hPa WSW 57 km/h 67.3 km/h 94 % 12.7 mm
22:37 -12.2 °C -12.7 °C 34222.3 hPa West 31.1 km/h 67.3 km/h 94 % 12.7 mm
22:42 -12.2 °C -12.7 °C 34222.3 hPa WSW 23.3 km/h 67.3 km/h 94 % 12.7 mm
22:47 -12.2 °C -12.7 °C 34235.8 hPa SW 20.8 km/h 67.3 km/h 94 % 12.7 mm
22:52 -12.2 °C -12.8 °C 34235.8 hPa West 25.9 km/h 62.1 km/h 93 % 12.7 mm
23:02 -12.2 °C -12.7 °C 34235.8 hPa WSW 49.2 km/h 57 km/h 94 % 12.7 mm
23:07 -12.2 °C -12.8 °C 34235.8 hPa WSW 44.1 km/h 69.8 km/h 93 % 12.7 mm
23:12 -12.2 °C -12.7 °C 34235.8 hPa SW 20.8 km/h 69.8 km/h 94 % 12.7 mm
23:17 -12.2 °C -12.7 °C 34235.8 hPa South 15.6 km/h 69.8 km/h 94 % 12.7 mm
23:22 -12.2 °C -12.7 °C 34235.8 hPa WSW 36.2 km/h 64.7 km/h 94 % 12.7 mm
23:32 -12.2 °C -12.7 °C 34235.8 hPa SW 41.4 km/h 62.1 km/h 94 % 12.7 mm
23:37 -12.3 °C -12.8 °C 34246 hPa SW 20.8 km/h 62.1 km/h 94 % 20.32 mm
23:42 -12.3 °C -12.8 °C 34246 hPa SW 33.6 km/h 62.1 km/h 94 % 20.32 mm
23:47 -12.3 °C -12.8 °C 34246 hPa WSW 33.6 km/h 54.4 km/h 94 % 20.32 mm
23:52 -12.3 °C -12.8 °C 34246 hPa WSW 49.2 km/h 51.8 km/h 94 % 20.32 mm
Meteo18
Compliments of Weather Underground - 4 mb

Script developed by  Jim McMurry - jmcmurry@mwt.net Adapted for the template by  Wim van der Kuil - Leuven-Template.eu

You find our weather info also at:

European Weather Network

Weather Underground

Equipment we use:

Weather-station
Davis Vue

Weather-program
Meteobridge

Weather-server
Raspberry PI 2 B+

Provider
1 and 1

Davis Vue

Meteobridge

Raspberry PI 2 B+

1 and 1